This is the latest recevied weather packets stored in our database for station/object K2RMB. If no packets are shown the sender has not sent any weather packets the latest 10 day(s).
| Time | Temp. | Humidity | Pressure | Rain* | Wind** | Luminosity | Snow |
|---|---|---|---|---|---|---|---|
| 1777666875 | 14.44° C | 33% | 1010.8 hPa | 0 mm | - | 511 W/m² | - |
| 1777666572 | 13.89° C | 37% | 1010.8 hPa | 0 mm | - | 526 W/m² | - |
| 1777666268 | 14.44° C | 37% | 1010.4 hPa | 0 mm | - | 551 W/m² | - |
| 1777665965 | 14.44° C | 37% | 1010.4 hPa | 0 mm | - | 588 W/m² | - |
| 1777665663 | 13.89° C | 41% | 1010.8 hPa | 0 mm | - | 582 W/m² | - |
| 1777665360 | 13.89° C | 38% | 1010.8 hPa | 0 mm | - | 589 W/m² | - |
| 1777664751 | 14.44° C | 40% | 1010.4 hPa | 0 mm | - | 620 W/m² | - |
| 1777664447 | 14.44° C | 42% | 1010.8 hPa | 0 mm | - | 373 W/m² | - |
| 1777664144 | 13.89° C | 43% | 1010.4 hPa | 0 mm | - | 654 W/m² | - |
| 1777663843 | 13.33° C | 40% | 1010.4 hPa | 0 mm | - | 671 W/m² | - |
| 1777663542 | 13.33° C | 41% | 1010.4 hPa | 0 mm | - | 659 W/m² | - |
| 1777662934 | 13.33° C | 40% | 1010.8 hPa | 0 mm | - | 688 W/m² | - |
| 1777662632 | 13.89° C | 38% | 1010.8 hPa | 0 mm | - | 702 W/m² | - |
| 1777662327 | 13.33° C | 45% | 1011.1 hPa | 0 mm | - | 713 W/m² | - |
| 1777660812 | 12.78° C | 44% | 1011.1 hPa | 0 mm | - | 811 W/m² | - |
| 1777660509 | 12.78° C | 45% | 1011.1 hPa | 0 mm | - | 880 W/m² | - |
| 1777659296 | 11.67° C | 46% | 1011.5 hPa | 0 mm | - | 1022 W/m² | - |
| 1777658993 | 11.67° C | 46% | 1011.8 hPa | 0 mm | - | 435 W/m² | - |
| 1777657780 | 11.67° C | 48% | 1011.5 hPa | 0 mm | - | 412 W/m² | - |
| 1777655656 | 11.67° C | 49% | 1011.5 hPa | 0 mm | - | 1000 W/m² | - |
| 1777655353 | 11.11° C | 47% | 1011.8 hPa | 0 mm | - | 979 W/m² | - |
| 1777654748 | 11.11° C | 48% | 1011.5 hPa | 0 mm | - | 962 W/m² | - |
| 1777653536 | 10.56° C | 49% | 1011.8 hPa | 0 mm | - | 1049 W/m² | - |
| 1777653233 | 10° C | 53% | 1011.8 hPa | 0 mm | - | 1017 W/m² | - |
| 1777652929 | 10° C | 52% | 1011.8 hPa | 0 mm | - | 274 W/m² | - |
* Rain latest hour (hover to see other rain measurements)
** Current wind speed in m/s (hover to see current wind gust speed)